Weather in Belenikhino

Russia / Belgorod Oblast     50°56′09″N   36°37′28″E
temp.,
°C
wind,
m/s
gust,
m/s
humid.,
%
clouds,
%
prec.,
mm/h
press.,
hPa
HPBL,
m
12 may, wed
wed1200:00+8e71474100 0.0 10211440
03:00+8e81580100 0.0 10211229
06:00+6ene5128822 0.0 1021484
09:00+10e81374100 0.0 10211238
12:00+10e71076100 0.6 10201242
15:00+12ene576831 1.2 10171118
18:00+9ese6990100 7.2 1016737
21:00+7ese4996100 10.4 1016208
13 may, thu
thu1300:00+8ese4119399 0.9 1014455
03:00+8se5109687 3.1 1014554
06:00+7se4109897 0.0 1015327
09:00+10sse5889100 0.1 1015656
12:00+15sse686583 0.1 10141562
15:00+15sse466998 0.2 10141015
18:00+16sse4669100 0.1 1014786
21:00+12se3486100 0.1 101461
14 may, fri
fri1400:00+11ese369093 0.0 1014100
03:00+11ese359583 0.6 101486
06:00+12ese41094100 0.1 1013208
09:00+18se6118158 0.3 1012608
12:00+22sse7967100 0.0 10111103
15:00+23sse6966100 0.0 10111258
18:00+21sse61176100 0.4 1010627
21:00+18se5128591 2.3 1010246
15 may, sat
sat1500:00+15se239684 6.8 100957
03:00+14sw11957 7.3 100911
06:00+15ssw2289100 0.0 101042
09:00+18ssw46745 0.0 1010454
12:00+21ssw57605 0.0 10111287
15:00+22ssw585598 0.0 10112089
18:00+19wsw467359 0.4 1012409
21:00+14wsw12870 0.4 101211
16 may, sun
sun1600:00+13wsw01875 0.0 101310
03:00+13ese118797 0.0 101311
06:00+14ese11870 0.0 101311
09:00+19ese2270100 0.0 1013404
12:00+22ese225642 0.0 10131240
15:00+23e335197 0.0 10121533
18:00+22ene356783 0.0 1011192
21:00+17ne4108190 0.0 1011166